Flag for Canada Weather past 2 weeks in Waterloo, Ontario, Canada

Now
27 °F

Low clouds.


Feels Like: 15 °F
Forecast: N/A
Wind: 15 mph from Northwest

Location: Waterloo Well

Current Time: Dec 18, 2014 at 4:01:55 PM

Latest Report: Dec 18, 2014 at 3:00 PM


Visibility: 9 mi

Pressure: 30.10 "Hg

Humidity: 93%

Dew point: 25 °F

Location of WaterlooLocation

Historic Weather in Waterloo — Graph

°F

Waterloo temperature yesterday

Maximum temperature yesterday: 41 °F (at 12:00 AM)
Minimum temperature yesterday: 28 °F (at 8:56 PM)
Average temperature yesterday: 34 °F

Past Weeks' High & Low Weather Summary

 TemperatureHumidityPressure
High41 °F (Dec 16, 11:59 PM)100% (Dec 6, 5:00 AM)30.79 "Hg (Dec 6, 5:00 AM)
Low18 °F (Dec 4, 9:00 PM)40% (Dec 7, 1:00 PM)29.70 "Hg (Dec 16, 2:00 PM)
Average31 °F85%30.13 "Hg
* Reported Dec 3 3:00 PM — Dec 18 3:00 PM, Waterloo, Weather by CustomWeather, © 2014

Note: Actual official high and low records may vary slightly from our data, if they occured in-between our weather recording intervals... More about our weather records

Advertising

Waterloo weather history for previous 24 hours

 ConditionsComfort  
Time TempWeatherWind HumidityBarometerVisibility
3:00 PM
Dec 18
27 °FLow clouds.15 mph93%30.10 "Hg9 mi
2:00 PM27 °FOvercast.15 mph93%30.10 "Hg9 mi
1:51 PM28 °FOvercast.14 mph86%30.10 "Hg9 mi
1:00 PM28 °FLow clouds.14 mph86%30.11 "Hg9 mi
12:00 PM28 °FLow clouds.12 mph86%30.12 "Hg9 mi
11:00 AM28 °FOvercast.9 mph86%30.13 "Hg9 mi
10:00 AM28 °FOvercast.10 mph86%30.13 "Hg9 mi
9:00 AM28 °FOvercast.15 mph86%30.12 "Hg9 mi
8:00 AM28 °FPartly sunny.13 mph86%30.11 "Hg9 mi
7:00 AM28 °FOvercast.15 mph86%30.11 "Hg9 mi
6:00 AM28 °FMostly cloudy.17 mph93%30.09 "Hg9 mi
5:00 AM28 °FOvercast.10 mph93%30.08 "Hg9 mi
4:00 AM28 °FOvercast.15 mph93%30.07 "Hg9 mi
3:00 AM28 °FMostly cloudy.14 mph93%30.07 "Hg9 mi
2:00 AM28 °FOvercast.12 mph93%30.04 "Hg9 mi
1:00 AM28 °FLight snow. Overcast.15 mph93%30.03 "Hg8 mi
12:56 AM28 °FLight snow. Overcast.13 mph93%30.03 "Hg9 mi
12:00 AM28 °FOvercast.15 mph86%30.02 "Hg9 mi
11:03 PM
Dec 17
28 °FMostly cloudy.21 mph86%30.01 "Hg9 mi
10:00 PM28 °FLight snow. Mostly cloudy.20 mph86%30.01 "Hg8 mi
9:04 PM28 °FLight snow. Mostly cloudy.14 mph93%30.01 "Hg6 mi
8:56 PM28 °FLight snow. Mostly cloudy.17 mph93%30.01 "Hg5 mi
8:00 PM30 °FLight snow. Overcast.17 mph86%30.00 "Hg5 mi
7:00 PM30 °FLight snow. Mostly cloudy.18 mph93%29.98 "Hg2 mi
6:00 PM30 °FLight snow. Mostly cloudy.16 mph93%29.96 "Hg2 mi
5:00 PM30 °FLight snow. Mostly cloudy.20 mph93%29.95 "Hg8 mi
4:00 PM32 °FLight snow. Overcast.22 mph87%29.94 "Hg9 mi
Weather by CustomWeather, © 2014

See weather overviewHow to use our weather pages